Portada
METAR-TAF:

METAR-TAF

Aeropuertos :

Seyresse

Dax, Francia

latitud: 43-41N, longitud: 001-04W, altitud: 32 m

Observación

El informe se hizo hace 22 minutos, a las 13:00 UTC
Viento 4 kt del este, variando entre noreste y sureste
Temperatura 11°C
Humedad 54%
Presión 1035 hPa
Visibilidad 10 km o más

METAR: LFBY 031300Z AUTO 09004KT 040V140 9999 // ////// 11/02 Q1035

Hora: 14:22 (13:22 UTC)


TAF: falta

Observaciones y pronósticos meteorológicos de más de 4000 aeropuertos (mensajes METAR y TAF).

Los puntos amarillos y rojos representan las estaciones disponibles.

Ponga el ratón en el punto deseado para ver el nombre de la estación.

Haga clic para ver las observaciones y los pronósticos meteorológicos.

Para cambiar el mapa : haga clic en los botones verdes con una cruz de color negro para hacer un zoom, en el botón verde con un guión para alejar o en las flechas verdes para mapas adyacentes.


METAR-TAF: